User: anonymous   Login
Location: Unspecified
(0.0000°N, 0.0000°E)
Time: 06:21:54
(UTC+00:00)
Language:

USA 37 - Orbit

View from above orbital plane
View from above orbital plane
View from above satellite
View from above satellite

Ground track
Ground track

The orbit data is extracted from the following two-line orbital elements,

1 19976U 89035A   18245.80936572 0.00000000  00000-0  00000-0 0    00
2 19976   8.0192   7.1529 0980463 287.9113  61.6543  1.00270000    04
Epoch (UTC): 02 September 2018 19:25:29
Eccentricity: 0.0980463
inclination: 8.0192°
perigee height: 31652 km
apogee height: 39921 km
right ascension of ascending node: 7.1529°
argument of perigee: 287.9113°
revolutions per day: 1.00270000
mean anomaly at epoch: 61.6543°
orbit number at epoch: 0

The dashed part of the orbit path shows where the satellite is in the earth's shadow,  

DLR